| time (UTC) | temp C | wind direction | speed KPH | gust KPH | rain 1hr cm | rain 24hr cm | rain mn cm | humidity % | barometer mb |
| 20260906000000 | 18 | 0 | 0.0 | 4.8 | 0.00 | 0.00 | 0.00 | 86 | 1000.4 |
| 20260905233020 | 20 | 0 | 0.0 | 3.2 | 0.00 | 0.00 | 0.00 | 83 | 1000.0 |
| 20260905230003 | 20 | 0 | 0.0 | 1.6 | 0.00 | 0.00 | 0.00 | 85 | 999.9 |
| 20260905220000 | 21 | 0 | 0.0 | 1.6 | 0.00 | 0.00 | 0.00 | 87 | 999.8 |
| 20260905213012 | 21 | 0 | 0.0 | 1.6 | 0.00 | 0.00 | 0.00 | 87 | 999.5 |
| 20260905210001 | 21 | 0 | 0.0 | 1.6 | 0.00 | 0.00 | 0.00 | 87 | 999.3 |
| 20260905203013 | 21 | 0 | 0.0 | 4.8 | 0.00 | 0.00 | 0.00 | 83 | 999.1 |
| 20260905200001 | 22 | 0 | 0.0 | 4.8 | 0.00 | 0.00 | 0.00 | 78 | 999.1 |
| 20260905193013 | 22 | 1 | 0.0 | 1.6 | 0.00 | 0.00 | 0.00 | 80 | 998.9 |
| 20260905190001 | 22 | 1 | 0.0 | 4.8 | 0.00 | 0.00 | 0.00 | 80 | 999.0 |
| 20260905183013 | 21 | 1 | 0.0 | 1.6 | 0.00 | 0.00 | 0.00 | 86 | 999.0 |
| 20260905173013 | 23 | 1 | 0.0 | 16.1 | 0.00 | 0.00 | 0.00 | 71 | 999.0 |
| 20260905170002 | 23 | 1 | 0.0 | 8.0 | 0.00 | 0.00 | 0.00 | 71 | 999.0 |
| 20260905163014 | 24 | 1 | 3.2 | 14.5 | 0.00 | 0.00 | 0.00 | 68 | 999.0 |
| 20260905160002 | 24 | 16 | 1.6 | 9.7 | 0.00 | 0.00 | 0.00 | 71 | 998.9 |
| 20260905153013 | 23 | 0 | 1.6 | 14.5 | 0.00 | 0.00 | 0.00 | 72 | 999.2 |
| 20260905150003 | 23 | 1 | 0.0 | 4.8 | 0.00 | 0.00 | 0.00 | 75 | 999.2 |
| 20260905143013 | 23 | 1 | 0.0 | 9.7 | 0.00 | 0.00 | 0.00 | 74 | 999.0 |
| 20260905140002 | 22 | 2 | 0.0 | 8.0 | 0.00 | 0.00 | 0.00 | 74 | 999.2 |
| 20260905130003 | 20 | 2 | 0.0 | 4.8 | 0.00 | 0.00 | 0.00 | 84 | 999.6 |
| 20260905123014 | 17 | 2 | 0.0 | 3.2 | 0.00 | 0.00 | 0.00 | 90 | 999.7 |
| 20260905120003 | 16 | 2 | 0.0 | 0.0 | 0.00 | 0.00 | 0.00 | 93 | 999.7 |
| 20260905113014 | 16 | 2 | 0.0 | 0.0 | 0.00 | 0.00 | 0.00 | 93 | 999.3 |
| 20260905103014 | 15 | 1 | 0.0 | 0.0 | 0.00 | 0.03 | 0.00 | 91 | 998.6 |
| 20260905100003 | 15 | 1 | 0.0 | 1.6 | 0.00 | 0.03 | 0.00 | 91 | 998.5 |
| 20260905093014 | 15 | 1 | 0.0 | 0.0 | 0.00 | 0.03 | 0.00 | 91 | 998.2 |
| 20260905090003 | 15 | 1 | 0.0 | 0.0 | 0.00 | 0.03 | 0.00 | 91 | 998.2 |
| 20260905083014 | 15 | 1 | 0.0 | 0.0 | 0.00 | 0.05 | 0.00 | 90 | 998.4 |
| 20260905080004 | 16 | 1 | 0.0 | 0.0 | 0.00 | 0.20 | 0.00 | 88 | 998.3 |
| 20260905073014 | 16 | 1 | 0.0 | 3.2 | 0.00 | 0.20 | 0.00 | 88 | 998.2 |
| 20260905063015 | 16 | 1 | 0.0 | 0.0 | 0.00 | 0.20 | 0.00 | 89 | 998.5 |
| 20260905060004 | 16 | 1 | 0.0 | 0.0 | 0.00 | 0.20 | 0.00 | 90 | 998.8 |
| 20260905053015 | 17 | 1 | 0.0 | 0.0 | 0.00 | 0.20 | 0.00 | 89 | 998.7 |
| 20260905050004 | 17 | 1 | 0.0 | 0.0 | 0.00 | 0.20 | 0.00 | 87 | 999.0 |
| 20260905043016 | 17 | 1 | 0.0 | 0.0 | 0.00 | 0.20 | 0.00 | 84 | 999.1 |
| 20260905040005 | 17 | 1 | 0.0 | 0.0 | 0.00 | 0.20 | 0.00 | 83 | 999.2 |
| 20260905033015 | 18 | 1 | 0.0 | 1.6 | 0.00 | 0.20 | 0.20 | 84 | 999.0 |
| 20260905023012 | 18 | 1 | 0.0 | 0.0 | 0.00 | 0.20 | 0.20 | 85 | 999.3 |
| 20260905020000 | 18 | 1 | 0.0 | 0.0 | 0.00 | 0.20 | 0.20 | 84 | 999.5 |
| 20260905013011 | 18 | 1 | 0.0 | 0.0 | 0.00 | 0.20 | 0.20 | 82 | 999.6 |
| 20260905003012 | 20 | 1 | 0.0 | 0.0 | 0.00 | 0.20 | 0.20 | 82 | 999.6 |